LU4FBU-13 Weather Reports


time (UTC)temp
C
wind
direction
speed
KPH
gust
KPH
rain 1hr
cm
rain 24hr
cm
rain mn
cm
humidity
%
barometer
mb
20260507155443 13 203 6.4 24.1 0.15 0.38 0.38 85 1004.2
20260507154423 14 270 12.9 27.4 0.10 0.33 0.33 81 1004.6
20260507153914 15 203 14.5 27.4 0.05 0.30 0.30 77 1005.9
20260507153405 15 248 14.5 32.2 0.00 0.23 0.23 69 1007.3
20260507153041 16 293 9.7 32.2 0.00 0.23 0.23 65 1009.0
20260507152344 16 315 11.3 32.2 0.00 0.23 0.23 63 1008.6
20260507152326 16 248 12.9 29.0 0.00 0.23 0.23 61 1006.5
20260507151832 16 248 12.9 29.0 0.00 0.23 0.23 61 1006.5
20260507151322 17 270 9.7 27.4 0.00 0.23 0.23 60 1005.7
20260507150813 17 270 17.7 29.0 0.00 0.23 0.23 63 1005.2
20260507144731 16 270 17.7 37.0 0.03 0.23 0.23 67 1003.6
20260507142651 16 248 17.7 38.6 0.03 0.23 0.23 73 1003.5
20260507141120 15 248 22.5 40.2 0.03 0.23 0.23 78 1004.6
20260507133007 17 270 17.7 37.0 0.00 0.20 0.20 67 1002.5
20260507130408 17 203 11.3 37.0 0.00 0.20 0.20 70 1002.4
20260507124840 18 270 19.3 37.0 0.00 0.20 0.20 66 1002.6
20260507123817 18 225 22.5 33.8 0.00 0.20 0.20 69 1002.2
20260507123308 18 225 8.0 27.4 0.00 0.20 0.20 73 1001.9
20260507113616 18 180 22.5 35.4 0.00 0.20 0.20 85 1001.1
20260507113006 18 180 12.9 33.8 0.00 0.20 0.20 86 1000.7
20260507105455 19 180 20.9 29.0 0.00 0.20 0.20 87 1000.3
20260507103415 19 180 6.4 25.7 0.00 0.20 0.20 87 999.6
20260507102355 19 180 17.7 35.4 0.00 0.20 0.20 87 999.1
20260507091138 20 180 17.7 22.5 0.00 0.20 0.20 90 997.1
20260507075359 20 180 3.2 17.7 0.20 0.20 0.20 91 998.1
20260507072300 21 158 6.4 17.7 0.03 0.03 0.03 83 998.5
20260507064648 23 203 0.0 14.5 0.00 0.00 0.00 91 998.3
20260507061038 23 90 0.0 6.4 0.00 0.00 0.00 91 997.7
20260507055721 23 68 3.2 6.4 0.00 0.00 0.00 90 997.9
20260507052110 23 45 3.2 6.4 0.00 0.00 0.00 89 998.3
20260507051602 23 68 1.6 6.4 0.00 0.00 0.00 89 998.6
20260507050030 23 68 3.2 6.4 0.00 0.00 0.00 88 998.5
20260507045011 23 68 3.2 6.4 0.00 0.00 0.00 87 998.2
20260507031709 24 68 4.8 9.7 0.00 0.00 0.00 84 999.0
20260507025117 25 45 1.6 3.2 0.00 0.00 0.00 83 999.3
20260507024055 25 45 1.6 6.4 0.00 0.00 0.00 83 999.2
20260507022527 25 23 3.2 3.2 0.00 0.00 0.00 82 999.3
20260507015934 25 23 3.2 6.4 0.00 0.00 0.00 81 999.2
20260507010753 25 45 4.8 11.3 0.00 0.00 0.00 80 998.7
20260507003654 25 68 4.8 17.7 0.00 0.00 0.00 79 998.4
20260506235021 26 45 3.2 11.3 0.00 0.00 0.00 76 998.9
20260506233450 27 45 6.4 20.9 0.00 0.00 0.00 74 998.9
20260506232947 27 0 6.4 25.7 0.00 0.00 0.00 74 998.8
20260506225840 27 23 12.9 24.1 0.00 0.00 0.00 70 998.7
20260506224822 27 23 9.7 24.1 0.00 0.00 0.00 71 998.6
20260506223248 27 45 6.4 17.7 0.00 0.00 0.00 73 998.8
20260506215127 28 23 6.4 17.7 0.00 0.00 0.00 71 999.2
20260506212537 28 0 3.2 12.9 0.00 0.00 0.00 70 999.3
20260506212032 28 23 3.2 12.9 0.00 0.00 0.00 70 999.1
20260506204431 30 23 4.8 20.9 0.00 0.00 0.00 65 999.0
20260506200807 30 0 11.3 22.5 0.00 0.00 0.00 63 999.2
20260506194725 31 23 11.3 27.4 0.00 0.00 0.00 63 999.6
20260506182442 30 315 9.7 24.1 0.00 0.00 0.00 64 1000.3
20260506180401 30 23 11.3 27.4 0.00 0.00 0.00 63 1000.3
20260506173756 30 23 11.3 29.0 0.00 0.00 0.00 64 1000.7
20260506162534 30 45 9.7 22.5 0.00 0.00 0.00 66 1002.0
20260506160453 30 45 6.4 27.4 0.00 0.00 0.00 67 1002.3